Home > Weather > Auckland > Past weeks

Flag for New Zealand Past Weather in Auckland, New Zealand — Yesterday and Last 2 Weeks

Now
64 °F

Sprinkles. Overcast.


Feels Like: 64 °F
Forecast: 54 / 62 °F
Wind: 25 mph from Northwest

Location: Auckland Airport

Current Time: Jul 24, 2016 at 3:12:00 AM

Latest Report: Jul 24, 2016 at 2:30 AM


Visibility: N/A

Pressure: 29.42 "Hg

Humidity: 88%

Dew Point: 61 °F

Location of AucklandLocation

Past Weather in Auckland — Graph

°F

Auckland Temperature Yesterday

Maximum temperature yesterday: 63 °F (at 1:00 PM)
Minimum temperature yesterday: 57 °F (at 12:00 AM)
Average temperature yesterday: 59 °F

High & Low Weather Summary for the Past Weeks

 TemperatureHumidityPressure
High64 °F (Jul 24, 1:30 AM)100% (Jul 12, 11:30 PM)30.30 "Hg (Jul 12, 11:30 PM)
Low39 °F (Jul 13, 3:00 AM)55% (Jul 9, 5:00 PM)29.45 "Hg (Jul 24, 2:00 AM)
Average53 °F80%29.94 "Hg
* Reported Jul 9 2:00 AM — Jul 24 2:00 AM, Auckland, Weather by CustomWeather, © 2016

Note: Actual official high and low records may vary slightly from our data, if they occured in-between our weather recording intervals... More about our weather records

Advertising

Auckland Weather History for the Previous 24 Hours

Scroll right to see more
 ConditionsComfort  
Time TempWeatherWind HumidityBarometerVisibility
2:00 AM
Sun, Jul 24
64 °FLight rain. Overcast.22 mph83%29.45 "HgN/A
1:30 AM64 °FScattered showers. Overcast.22 mph83%29.47 "HgN/A
1:00 AM61 °FOvercast.12 mph88%29.47 "HgN/A
12:30 AM59 °FDrizzle. Overcast.14 mph94%29.50 "HgN/A
12:00 AM59 °FOvercast.14 mph88%29.53 "HgN/A
11:30 PM
Sat, Jul 23
59 °FOvercast.13 mph88%29.53 "HgN/A
11:00 PM59 °FOvercast.14 mph88%29.56 "HgN/A
10:30 PM59 °FSprinkles. Overcast.12 mph88%29.56 "HgN/A
10:00 PM59 °FOvercast.12 mph88%29.56 "HgN/A
9:30 PM59 °FPassing clouds.12 mph88%29.59 "HgN/A
9:00 PM59 °FMostly cloudy.14 mph88%29.59 "HgN/A
8:30 PM59 °FPassing clouds.15 mph88%29.62 "HgN/A
8:00 PM61 °FPassing clouds.14 mph83%29.62 "HgN/A
7:30 PM59 °FPassing clouds.13 mph88%29.62 "HgN/A
7:00 PM59 °FPassing clouds.12 mph88%29.62 "HgN/A
6:30 PM59 °FPassing clouds.12 mph88%29.62 "HgN/A
6:00 PM59 °FPassing clouds.12 mph88%29.65 "Hg4 mi
5:30 PM59 °FPartly cloudy.9 mph88%29.62 "HgN/A
5:00 PM59 °FSprinkles. Passing clouds.16 mph88%29.62 "HgN/A
4:30 PM61 °FPartly cloudy.15 mph83%29.65 "HgN/A
4:00 PM61 °FMostly cloudy.13 mph83%29.65 "HgN/A
3:30 PM61 °FPartly sunny.16 mph88%29.62 "HgN/A
3:00 PM61 °FPartly sunny.17 mph88%29.65 "HgN/A
2:30 PM61 °FBroken clouds.20 mph88%29.62 "HgN/A
2:00 PM61 °FSprinkles. Cloudy.20 mph88%29.65 "HgN/A
1:30 PM61 °FSprinkles. Broken clouds.16 mph94%29.65 "Hg2 mi
1:00 PM63 °FScattered showers. Broken clouds.16 mph88%29.65 "HgN/A
12:30 PM61 °FDrizzle. Partly sunny.16 mph94%29.65 "Hg2 mi
12:00 PM61 °FScattered showers. Broken clouds.16 mph94%29.68 "HgN/A
11:30 AM61 °FLight rain. Partly sunny.14 mph94%29.68 "Hg4 mi
11:00 AM61 °FLight rain. Overcast.14 mph94%29.68 "HgN/A
10:30 AM61 °FOvercast.10 mph88%29.68 "HgN/A
10:00 AM61 °FScattered showers. Overcast.12 mph94%29.68 "HgN/A
9:30 AM61 °FPartly sunny.10 mph88%29.68 "HgN/A
9:00 AM61 °FPartly sunny.9 mph94%29.68 "HgN/A
8:30 AM59 °FScattered clouds.10 mph94%29.68 "HgN/A
8:00 AM59 °FPartly sunny.10 mph94%29.68 "HgN/A
7:30 AM57 °FPartly sunny.9 mph100%29.68 "HgN/A
7:00 AM57 °FPartly sunny.7 mph100%29.68 "HgN/A
6:30 AM59 °FPartly sunny.10 mph100%29.68 "HgN/A
6:00 AM59 °FPassing clouds.13 mph100%29.68 "HgN/A
5:30 AM59 °FLow clouds.16 mph94%29.71 "HgN/A
5:00 AM59 °FLow clouds.15 mph100%29.71 "HgN/A
4:00 AM57 °FLight rain. Passing clouds.20 mph100%29.74 "Hg4 mi
3:30 AM57 °FLight rain. Overcast.23 mph100%29.74 "Hg6 mi
3:00 AM57 °FLight rain. Passing clouds.23 mph100%29.77 "Hg3 mi
Weather by CustomWeather, © 2016

See weather overviewHow to use our weather pages